Time,TemperatureF,DewpointF,PressureIn,WindDirection,WindDirectionDegrees,WindSpeedMPH,WindSpeedGustMPH,Humidity,HourlyPrecipIn,Conditions,Clouds,dailyrainin,SoftwareType,DateUTC
2013-04-04 00:03:00,43.5,32.9,30.18,NNW,337,0.0,-999.0,66,-99.99,,,0.00,Acu-Link.com,2013-04-04 04:03:00,
2013-04-04 00:18:00,43.2,33.0,30.18,NNE,22,0.0,-999.0,67,-99.99,,,0.00,Acu-Link.com,2013-04-04 04:18:00,
2013-04-04 00:34:00,43.0,32.8,30.17,NNE,22,0.0,-999.0,67,-99.99,,,0.00,Acu-Link.com,2013-04-04 04:34:00,
2013-04-04 00:49:00,42.8,33.0,30.17,NNE,22,0.0,-999.0,68,-99.99,,,0.00,Acu-Link.com,2013-04-04 04:49:00,
2013-04-04 01:04:00,42.4,33.0,30.18,NNE,22,0.0,-999.0,69,-99.99,,,0.00,Acu-Link.com,2013-04-04 05:04:00,
2013-04-04 01:20:00,42.1,34.1,30.18,NNE,22,0.0,-999.0,73,-99.99,,,0.00,Acu-Link.com,2013-04-04 05:20:00,
2013-04-04 01:35:00,43.9,26.5,30.18,NNE,22,7.8,-999.0,50,-99.99,,,0.00,Acu-Link.com,2013-04-04 05:35:00,
2013-04-04 01:50:00,44.4,25.0,30.19,NNE,22,4.3,-999.0,46,-99.99,,,0.00,Acu-Link.com,2013-04-04 05:50:00,
2013-04-04 02:05:00,44.4,24.4,30.19,NNE,22,1.6,-999.0,45,-99.99,,,0.00,Acu-Link.com,2013-04-04 06:05:00,
2013-04-04 02:20:00,44.2,24.3,30.19,NNE,22,2.2,-999.0,45,-99.99,,,0.00,Acu-Link.com,2013-04-04 06:20:00,
2013-04-04 02:35:00,44.1,24.1,30.18,NNE,22,2.2,-999.0,45,-99.99,,,0.00,Acu-Link.com,2013-04-04 06:35:00,
2013-04-04 03:06:00,43.5,25.1,30.18,NNE,22,2.7,-999.0,48,-99.99,,,0.00,Acu-Link.com,2013-04-04 07:06:00,
2013-04-04 03:21:00,43.2,25.8,30.19,NNE,22,2.2,-999.0,50,-99.99,,,0.00,Acu-Link.com,2013-04-04 07:21:00,
2013-04-04 03:37:00,43.0,27.5,30.20,NNE,22,2.7,-999.0,54,-99.99,,,0.00,Acu-Link.com,2013-04-04 07:37:00,
2013-04-04 03:52:00,42.4,29.6,30.20,NNE,22,2.2,-999.0,60,-99.99,,,0.00,Acu-Link.com,2013-04-04 07:52:00,
2013-04-04 04:24:00,42.1,30.8,30.20,NNE,22,0.0,-999.0,64,-99.99,,,0.00,Acu-Link.com,2013-04-04 08:24:00,
2013-04-04 04:39:00,41.9,32.1,30.19,NE,45,1.6,-999.0,68,-99.99,,,0.00,Acu-Link.com,2013-04-04 08:39:00,
2013-04-04 04:54:00,41.9,32.1,30.20,NNE,22,1.1,-999.0,68,-99.99,,,0.00,Acu-Link.com,2013-04-04 08:54:00,
2013-04-04 05:09:00,41.9,31.8,30.20,NE,45,1.6,-999.0,67,-99.99,,,0.00,Acu-Link.com,2013-04-04 09:09:00,
2013-04-04 05:24:00,41.9,31.0,30.21,NE,45,2.7,-999.0,65,-99.99,,,0.00,Acu-Link.com,2013-04-04 09:24:00,
2013-04-04 05:39:00,41.7,30.1,30.21,NNW,337,1.6,-999.0,63,-99.99,,,0.00,Acu-Link.com,2013-04-04 09:39:00,
2013-04-04 05:54:00,41.4,29.7,30.21,NNE,22,3.8,-999.0,63,-99.99,,,0.00,Acu-Link.com,2013-04-04 09:54:00,
2013-04-04 06:10:00,41.2,29.6,30.21,North,0,2.2,-999.0,63,-99.99,,,0.00,Acu-Link.com,2013-04-04 10:10:00,
2013-04-04 06:25:00,40.6,29.4,30.22,NNE,22,0.0,-999.0,64,-99.99,,,0.00,Acu-Link.com,2013-04-04 10:25:00,
2013-04-04 06:40:00,40.6,29.0,30.22,NNE,22,1.6,-999.0,63,-99.99,,,0.00,Acu-Link.com,2013-04-04 10:40:00,
2013-04-04 06:55:00,40.5,28.9,30.22,North,0,2.2,-999.0,63,-99.99,,,0.00,Acu-Link.com,2013-04-04 10:55:00,
2013-04-04 07:11:00,40.5,28.5,30.22,NE,45,2.7,-999.0,62,-99.99,,,0.00,Acu-Link.com,2013-04-04 11:11:00,
2013-04-04 07:26:00,40.3,27.9,30.24,NNE,22,1.6,-999.0,61,-99.99,,,0.00,Acu-Link.com,2013-04-04 11:26:00,
2013-04-04 07:56:00,40.6,27.9,30.25,North,0,0.0,-999.0,60,-99.99,,,0.00,Acu-Link.com,2013-04-04 11:56:00,
2013-04-04 08:12:00,41.4,27.7,30.25,NNE,22,2.2,-999.0,58,-99.99,,,0.00,Acu-Link.com,2013-04-04 12:12:00,
2013-04-04 08:27:00,42.1,28.0,30.25,NNE,22,3.1,-999.0,57,-99.99,,,0.00,Acu-Link.com,2013-04-04 12:27:00,
2013-04-04 08:42:00,42.8,26.9,30.25,NNE,22,4.7,-999.0,53,-99.99,,,0.00,Acu-Link.com,2013-04-04 12:42:00,
2013-04-04 08:57:00,43.2,26.7,30.25,ENE,67,3.1,-999.0,52,-99.99,,,0.00,Acu-Link.com,2013-04-04 12:57:00,
2013-04-04 09:13:00,44.1,27.1,30.25,NE,45,2.7,-999.0,51,-99.99,,,0.00,Acu-Link.com,2013-04-04 13:13:00,
2013-04-04 09:28:00,44.4,27.0,30.24,North,0,3.1,-999.0,50,-99.99,,,0.00,Acu-Link.com,2013-04-04 13:28:00,
2013-04-04 10:14:00,45.7,28.6,30.23,ESE,112,1.6,-999.0,51,-99.99,,,0.00,Acu-Link.com,2013-04-04 14:14:00,
2013-04-04 10:29:00,45.7,28.1,30.22,NE,45,2.2,-999.0,50,-99.99,,,0.00,Acu-Link.com,2013-04-04 14:29:00,
2013-04-04 10:44:00,47.5,28.8,30.23,NE,45,2.2,-999.0,48,-99.99,,,0.00,Acu-Link.com,2013-04-04 14:44:00,
2013-04-04 11:00:00,48.0,29.3,30.22,NE,45,1.6,-999.0,48,-99.99,,,0.00,Acu-Link.com,2013-04-04 15:00:00,
2013-04-04 11:15:00,48.9,29.6,30.21,NE,45,3.1,-999.0,47,-99.99,,,0.00,Acu-Link.com,2013-04-04 15:15:00,
2013-04-04 11:30:00,49.5,28.5,30.20,NE,45,2.7,-999.0,44,-99.99,,,0.00,Acu-Link.com,2013-04-04 15:30:00,
2013-04-04 11:45:00,49.5,29.0,30.20,SE,135,0.0,-999.0,45,-99.99,,,0.00,Acu-Link.com,2013-04-04 15:45:00,
2013-04-04 12:16:00,50.2,29.7,30.18,NE,45,2.7,-999.0,45,-99.99,,,0.00,Acu-Link.com,2013-04-04 16:16:00,
2013-04-04 12:47:00,50.9,29.8,30.16,East,90,2.2,-999.0,44,-99.99,,,0.00,Acu-Link.com,2013-04-04 16:47:00,
2013-04-04 13:02:00,52.5,30.1,30.15,ESE,112,2.2,-999.0,42,-99.99,,,0.00,Acu-Link.com,2013-04-04 17:02:00,
2013-04-04 13:17:00,52.0,29.6,30.14,East,90,2.7,-999.0,42,-99.99,,,0.00,Acu-Link.com,2013-04-04 17:17:00,
2013-04-04 13:32:00,50.7,31.2,30.12,NNE,22,1.1,-999.0,47,-99.99,,,0.00,Acu-Link.com,2013-04-04 17:32:00,
2013-04-04 13:48:00,48.4,37.9,30.12,NNE,22,2.2,-999.0,67,-99.99,,,0.01,Acu-Link.com,2013-04-04 17:48:00,
2013-04-04 14:03:00,47.5,38.2,30.12,NNE,22,2.2,-999.0,70,-99.99,,,0.01,Acu-Link.com,2013-04-04 18:03:00,
2013-04-04 14:34:00,46.2,40.4,30.12,NNE,22,1.6,-999.0,80,-99.99,,,0.05,Acu-Link.com,2013-04-04 18:34:00,
2013-04-04 14:49:00,45.0,40.4,30.09,NNE,22,0.0,-999.0,84,-99.99,,,0.06,Acu-Link.com,2013-04-04 18:49:00,
2013-04-04 15:04:00,44.8,40.6,30.10,NNE,22,1.1,-999.0,85,-99.99,,,0.07,Acu-Link.com,2013-04-04 19:04:00,
2013-04-04 15:20:00,44.1,40.7,30.09,NNE,22,2.7,-999.0,88,-99.99,,,0.08,Acu-Link.com,2013-04-04 19:20:00,